Regional Weather Roundup
Issued by NWS Sterling, VA

Home | Current Version | Previous Version | Text Only | Print | Product List | Glossary On
Versions: 1 2 3 4 5 6 7 8 9 10 11 12 13 14 15 16 17 18 19 20 21 22 23 24 25 26 27 28 29 30 31 32 33 34 35 36 37 38 39 40 41 42 43 44 45 46 47 48 49 50
000
ASUS41 KLWX 230911
RWRLWX

REGIONAL WEATHER ROUNDUP
NATIONAL WEATHER SERVICE BALTIMORE MD/WASHINGTON DC
500 AM EDT FRI JUN 23 2017

Note: "FAIR" indicates few or no clouds below 12,000 feet
with no significant weather and/or obstructions to visibility.
 TC=TEMPERATURE CELSIUS

 * =Non NWS site. Station does not report precipitation (e.g. rain,
    snow, etc.), thunder, or fog.

DCZ001-MDZ009-015-VAZ040>042-051-053>054-231000-
WASHINGTON METRO

CITY           SKY/WX    TMP DP  RH WIND       PRES   REMARKS
WASHINGTON NAT LGT RAIN  78  72  81 SW10      29.88S
DULLES         LGT RAIN  73  70  90 S6        29.88S
FT BELVOIR     MOCLDY    77  69  74 SW3       29.88S
QUANTICO       MOCLDY    79  69  71 SW9       29.89S
COLLEGE PARK*  CLOUDY    77  70  79 SW5       29.86F
LEESBURG*      RAIN      73  73 100 SW3       29.89S
MANASSAS*      LGT RAIN  74  69  85 SW8       29.89S
GAITHERSBURG*  LGT RAIN  75  70  84 SW5       29.89S

$$

MDZ006>007-011-014-231000-
BALTIMORE METRO

CITY           SKY/WX    TMP DP  RH WIND       PRES   REMARKS
BWI AIRPORT    CLOUDY    76  72  87 SW7       29.85F
MD SCIENCE CTR   N/A     78  72  81 MISG      29.85F
MARTIN STATE   CLOUDY    77  73  88 S3        29.87S
ANNAPOLIS      MOCLDY    77  74  90 S6        29.86S

$$

MDZ012-015-019>023-231000-
MARYLAND EASTERN SHORE

CITY           SKY/WX    TMP DP  RH WIND       PRES   REMARKS
OCEAN CITY     CLOUDY    77  72  84 SW7       29.91S
SALISBURY      CLOUDY    73  72  96 S5        29.90S
BAY BRIDGE AP* MOCLDY    77  72  83 SW8       29.87S
CAMBRIDGE*     CLEAR     77  72  83 CALM      29.89S
EASTON*        CLOUDY    78  71  80 W9        29.92R

$$

MDZ017>025-231000-
SOUTHERN MARYLAND

CITY           SKY/WX    TMP DP  RH WIND       PRES   REMARKS
PATUXENT RIVER CLOUDY    77  69  76 W8        29.89S
ST INIGOES     CLOUDY    79  71  76 SW15      29.89F
LEONARDTOWN*   CLOUDY    77  68  73 SW8       29.91S

$$

MDZ003>005-231000-
NORTH CENTRAL MARYLAND

CITY           SKY/WX    TMP DP  RH WIND       PRES   REMARKS
FREDERICK*     MOCLDY    75  73  94 S8        29.89R
HAGERSTOWN APT LGT RAIN  76  71  85 S8        29.86S
WESTMINSTER*   MOCLDY    75  72  88 SW6       29.88S

$$

MDZ501>502-231000-
WESTERN MARYLAND

CITY           SKY/WX    TMP DP  RH WIND       PRES   REMARKS
OAKLAND*       NOT AVBL
CUMBERLAND*    CLOUDY    72  72 100 CALM      29.93R VSB 1

$$

VAZ025>031-231000-
SHENANDOAH VALLEY

CITY           SKY/WX    TMP DP  RH WIND       PRES   REMARKS
WINCHESTER*    LGT RAIN  72  66  83 SW9G17    29.89S
FRONT ROYAL*   CLOUDY    70  68  94 SW7       29.90R
LURAY*         LGT RAIN  70  68  94 SW5       29.92F
NEW MARKET*    CLOUDY    69  66  90 CALM      29.90F
STAUNTON*      CLOUDY    68  65  92 S8        29.95F
WAYNESBORO*    CLOUDY    67  67  99 SW3       29.95F

$$

WVZ021-048>050-054>055-231000-
EASTERN WEST VIRGINIA PANHANDLE

CITY           SKY/WX    TMP DP  RH WIND       PRES   REMARKS
MARTINSBURG    LGT RAIN  73  68  84 SW6       29.86S
PETERSBURG*    CLOUDY    70  69  95 SE3       29.89F

$$

VAZ036>039-050-231000-
CENTRAL FOOTHILLS

CITY           SKY/WX    TMP DP  RH WIND       PRES   REMARKS
CHARLOTTESVILL LGT RAIN  72  68  87 S12       29.92S
CULPEPER*      DRIZZLE   74  70  85 SW8       29.92R
ORANGE*        RAIN      72  68  88 SW14      29.93R
GORDONSVILLE*  CLOUDY    71  69  93 SW9G16    29.93R
WARRENTON*     DRIZZLE   75  65  71 SW6       29.90R

$$

VAZ055>057-231000-
NORTH AND CENTRAL PIEDMONT

CITY           SKY/WX    TMP DP  RH WIND       PRES   REMARKS
FREDERICKSBRG* CLOUDY    76  69  77 SW9       29.90S
STAFFORD*      MOCLDY    75  71  87 SW3       29.94S

$$

NCZ024-NYZ072-PAZ021-071-VAZ022-071-231000-
OTHER REGIONAL OBSERVATIONS

CITY           SKY/WX    TMP DP  RH WIND       PRES   REMARKS
NEW YORK CITY  PTCLDY    78  70  76 VRB7      29.85F
PHILADELPHIA   CLOUDY    77  72  84 SW7       29.85F
PITTSBURGH     LGT RAIN  70  68  93 S9        29.81F FOG
ROANOKE        LGT RAIN  71  70  96 SE5       29.98F
RICHMOND       CLOUDY    76  71  85 SW10      29.94S
RALEIGH        LGT RAIN  74  73  97 SW10      29.99F

$$

ANZ530>537-231000-
MARINE OBSERVATIONS

STATION/POSITION TIME  TEMP    WIND        PRES
                       AIR SEA DIR/SP/G
                 (UTC) (F)     (DEG/KT/KT) (MB)
THOMAS PT LIGHT  0900   77 77  240/ 12/ 14   N/A
BALT KEY BRIDGE  0842   77     210/  6/  8 1010.6S
COVE POINT       0842   77     250/ 11/ 18 1012.7R
LEWISETTA        0842   78 79  240/  9/ 11 1012.7S
SOLOMONS ISLAND  0842   77 77  240/ 12/ 17   N/A
PINEY POINT      0842          250/  6/  9   N/A

$$




USA.gov is the U.S. government's official web portal to all federal, state and local government web resources and services.